Regional Weather Roundup
Issued by NWS Jackson, KY

Home | Current Version | Previous Version | Graphics & Text | Print | Product List | Glossary On
Versions: 1 2 3 4 5 6 7 8 9 10 11 12 13 14 15 16 17 18 19 20 21 22 23 24 25 26 27 28 29 30 31 32 33 34 35 36 37 38 39 40 41 42 43 44 45 46 47 48 49 50
000
ASUS43 KJKL 011610
RWRJKL

EAST KENTUCKY HOURLY WEATHER ROUNDUP
NATIONAL WEATHER SERVICE JACKSON KY
1200 PM EDT WED JUL 01 2015

NOTE: "FAIR" INDICATES FEW OR NO CLOUDS BELOW 12,000 FEET WITH
NO SIGNIFICANT WEATHER AND/OR OBSTRUCTIONS TO VISIBILITY.

* THESE REPORTS ARE NOT UNDER NWS QUALITY CONTROL AND MAY NOT
  REPORT WEATHER SUCH AS PRECIPITATION AND FOG.

KYZ079-080-083-085-087-088-110-112-115-119-120-011700
...EASTERN KENTUCKY...

CITY           SKY/WX    TMP DP  RH WIND       PRES   REMARKS
JACKSON        PTSUNNY   75  69  81 VRB3      29.98F
LONDON         PTSUNNY   79  67  66 SW8       29.99S
SOMERSET*      MOSUNNY   73  68  83 W8        29.99R
MONTICELLO*    PTSUNNY   76  73  90 SW6       30.02R
MIDDLESBORO*   PTSUNNY   76  70  79 CALM      30.00S
HARLAN APT*      N/A     77  64  65 CALM      30.01S
HAZARD APT*    PTSUNNY   77  68  73 SW9       29.99S
BLACK MTN*       N/A     66  63  88 SE2         N/A
PIKEVILLE APT* CLOUDY    75  68  78 SW6       29.99S
BIG SANDY*     PTSUNNY   75  69  81 W6        29.98S
MOREHEAD APT*  CLOUDY    73  66  78 CALM      29.99S
$$

KYZ035-036-041-042-044-050-067-078-099-011700
...CENTRAL KENTUCKY...

CITY           SKY/WX    TMP DP  RH WIND       PRES   REMARKS
MT STERLING*   PTSUNNY   75  70  83 NW3       29.98S
FLEMING/MASON* MOSUNNY   73  64  73 CALM      29.98S
DANVILLE*      MOSUNNY   77  68  73 SW6       29.99R
RICHMOND*      PTSUNNY   77  68  73 SW8       29.97R
LEXINGTON      PTSUNNY   76  69  79 VRB3      29.97S
FRANKFORT      MOSUNNY   76  67  73 N3        29.96R
$$

KYZ091>093-OHZ055-061-077-WVZ005-015-034-035-042-011700
...SOUTHERN OHIO/WEST VIRGINIA...

CITY           SKY/WX    TMP DP  RH WIND       PRES   REMARKS
COVINGTON      MOSUNNY   76  62  62 CALM      29.96R
COLUMBUS       MOSUNNY   72  60  66 W6        29.93S
DAYTON         MOSUNNY   74  59  59 VRB6      29.96S
WILMINGTON     SUNNY     73  58  59 VRB5      29.95S
HUNTINGTON     PTSUNNY   72  67  84 W5        29.96F HAZE
CHARLESTON     CLOUDY    71  65  81 SW5       29.97S
PINEVILLE*     CLOUDY    74  68  80 MISG      30.05F
BECKLEY        CLOUDY    71  62  73 W12       30.03S
BLUEFIELD      PTSUNNY   73  61  65 VRB7      30.06R
$$

VAZ002-007-008-TNZ017-027-036-066-071-011700
...SOUTHWEST VIRGINIA/EAST TENNESSEE...

CITY           SKY/WX    TMP DP  RH WIND       PRES   REMARKS
WISE*          CLOUDY    73  61  64 W8        30.07R
JONESVILLE*      N/A    N/A N/A N/A MISG        N/A
ABINGDON*      PTSUNNY   75  67  76 W12       30.05F
BRISTOL        MOSUNNY   76  67  73 SW7       30.03F
KNOXVILLE      CLOUDY    78  69  73 S9        30.02R
OAK RIDGE      CLOUDY    76  69  79 S8        30.02R
CROSSVILLE     CLOUDY    74  67  78 VRB7      30.06R
NASHVILLE      LGT RAIN  76  74  93 W3        30.00S
$$

...KEY TO REMARKS...
VSB - VISIBILITY IN MILES
WCI - WIND CHILL INDEX
HX  - HEAT INDEX

$$



USA.gov is the U.S. government's official web portal to all federal, state and local government web resources and services.